Time,TemperatureF,DewpointF,PressureIn,WindDirection,WindDirectionDegrees,WindSpeedMPH,WindSpeedGustMPH,Humidity,HourlyPrecipIn,Conditions,Clouds,dailyrainin,SoftwareType,DateUTC
2013-08-08 00:00:00,84.3,66.9,29.78,WNW,302,0.0,8.0,56,0.00,,,0.00,Wunderground v.1.15,2013-08-08 05:00:00,
2013-08-08 00:10:00,83.9,67.0,29.78,WNW,303,0.0,8.0,57,0.00,,,0.00,Wunderground v.1.15,2013-08-08 05:10:00,
2013-08-08 00:20:00,83.7,67.4,29.78,WNW,303,0.0,8.0,58,0.00,,,0.00,Wunderground v.1.15,2013-08-08 05:20:00,
2013-08-08 00:30:00,83.4,67.1,29.78,WNW,302,0.0,8.0,58,0.00,,,0.00,Wunderground v.1.15,2013-08-08 05:30:00,
2013-08-08 00:40:00,83.0,67.7,29.78,WNW,302,0.0,8.0,60,0.00,,,0.00,Wunderground v.1.15,2013-08-08 05:40:00,
2013-08-08 00:50:00,82.6,67.3,29.77,WNW,302,0.0,8.0,60,0.00,,,0.00,Wunderground v.1.15,2013-08-08 05:50:00,
2013-08-08 01:00:00,82.0,67.7,29.77,WNW,297,0.0,8.0,62,0.00,,,0.00,Wunderground v.1.15,2013-08-08 06:00:00,
2013-08-08 01:10:00,80.8,67.9,29.76,WNW,296,0.0,8.0,65,0.00,,,0.00,Wunderground v.1.15,2013-08-08 06:10:00,
2013-08-08 01:20:00,80.6,67.7,29.76,WNW,296,0.0,8.0,65,0.00,,,0.00,Wunderground v.1.15,2013-08-08 06:20:00,
2013-08-08 01:30:00,80.5,67.6,29.76,WNW,296,0.0,8.0,65,0.00,,,0.00,Wunderground v.1.15,2013-08-08 06:30:00,
2013-08-08 01:40:00,80.3,67.5,29.76,WNW,296,0.0,8.0,65,0.00,,,0.00,Wunderground v.1.15,2013-08-08 06:40:00,
2013-08-08 01:50:00,80.1,67.3,29.76,WNW,296,0.0,8.0,65,0.00,,,0.00,Wunderground v.1.15,2013-08-08 06:50:00,
2013-08-08 02:00:00,80.0,67.2,29.75,WNW,296,0.0,8.0,65,0.00,,,0.00,Wunderground v.1.15,2013-08-08 07:00:00,
2013-08-08 02:10:00,79.7,67.3,29.75,WNW,296,0.0,8.0,66,0.00,,,0.00,Wunderground v.1.15,2013-08-08 07:10:00,
2013-08-08 02:20:00,79.5,68.0,29.75,WNW,296,0.0,8.0,68,0.00,,,0.00,Wunderground v.1.15,2013-08-08 07:20:00,
2013-08-08 02:30:00,79.3,67.8,29.75,WNW,294,0.0,8.0,68,0.00,,,0.00,Wunderground v.1.15,2013-08-08 07:30:00,
2013-08-08 02:40:00,79.0,67.5,29.75,WNW,294,0.0,8.0,68,0.00,,,0.00,Wunderground v.1.15,2013-08-08 07:40:00,
2013-08-08 02:50:00,78.8,67.3,29.76,WNW,290,0.0,8.0,68,0.00,,,0.00,Wunderground v.1.15,2013-08-08 07:50:00,
2013-08-08 03:00:00,78.6,67.6,29.75,SSE,165,2.0,8.0,69,0.00,,,0.00,Wunderground v.1.15,2013-08-08 08:00:00,
2013-08-08 03:10:00,78.5,67.5,29.75,SSE,165,0.0,8.0,69,0.00,,,0.00,Wunderground v.1.15,2013-08-08 08:10:00,
2013-08-08 03:20:00,78.8,67.3,29.74,SSE,165,1.0,1.0,68,0.00,,,0.00,Wunderground v.1.15,2013-08-08 08:20:00,
2013-08-08 03:30:00,78.9,67.4,29.74,SSE,165,0.0,8.0,68,0.00,,,0.00,Wunderground v.1.15,2013-08-08 08:30:00,
2013-08-08 03:40:00,78.8,67.3,29.73,SSE,165,0.0,8.0,68,0.00,,,0.00,Wunderground v.1.15,2013-08-08 08:40:00,
2013-08-08 03:50:00,78.5,67.1,29.73,SSE,165,0.0,8.0,68,0.00,,,0.00,Wunderground v.1.15,2013-08-08 08:50:00,
2013-08-08 04:00:00,78.3,67.3,29.73,SSE,165,0.0,8.0,69,0.00,,,0.00,Wunderground v.1.15,2013-08-08 09:00:00,
2013-08-08 04:10:00,78.2,67.2,29.73,SSE,165,0.0,8.0,69,0.00,,,0.00,Wunderground v.1.15,2013-08-08 09:10:00,
2013-08-08 04:20:00,78.2,67.2,29.73,SSE,165,0.0,8.0,69,0.00,,,0.00,Wunderground v.1.15,2013-08-08 09:20:00,
2013-08-08 04:30:00,78.4,67.0,29.73,SSE,165,0.0,8.0,68,0.00,,,0.00,Wunderground v.1.15,2013-08-08 09:30:00,
2013-08-08 04:40:00,78.3,66.9,29.73,SSE,165,0.0,8.0,68,0.00,,,0.00,Wunderground v.1.15,2013-08-08 09:40:00,
2013-08-08 04:50:00,78.2,67.2,29.73,SSE,165,0.0,8.0,69,0.00,,,0.00,Wunderground v.1.15,2013-08-08 09:50:00,
2013-08-08 05:00:00,78.1,67.1,29.73,SSE,165,0.0,8.0,69,0.00,,,0.00,Wunderground v.1.15,2013-08-08 10:00:00,
2013-08-08 05:10:00,78.2,67.6,29.73,SSE,165,0.0,8.0,70,0.00,,,0.00,Wunderground v.1.15,2013-08-08 10:10:00,
2013-08-08 05:20:00,78.1,67.5,29.73,SSE,165,0.0,8.0,70,0.00,,,0.00,Wunderground v.1.15,2013-08-08 10:20:00,
2013-08-08 05:30:00,77.9,67.3,29.73,SSE,165,0.0,8.0,70,0.00,,,0.00,Wunderground v.1.15,2013-08-08 10:30:00,
2013-08-08 05:40:00,77.8,67.6,29.73,SSE,165,0.0,8.0,71,0.00,,,0.00,Wunderground v.1.15,2013-08-08 10:40:00,
2013-08-08 05:50:00,77.8,67.6,29.74,SSE,165,0.0,8.0,71,0.00,,,0.00,Wunderground v.1.15,2013-08-08 10:50:00,
2013-08-08 06:00:00,77.8,68.4,29.74,SSE,165,0.0,8.0,73,0.00,,,0.00,Wunderground v.1.15,2013-08-08 11:00:00,
2013-08-08 06:10:00,77.6,68.7,29.74,SSE,165,0.0,8.0,74,0.00,,,0.00,Wunderground v.1.15,2013-08-08 11:10:00,
2013-08-08 06:20:00,77.4,69.2,29.74,SSE,165,0.0,8.0,76,0.00,,,0.00,Wunderground v.1.15,2013-08-08 11:20:00,
2013-08-08 06:30:00,77.3,69.1,29.74,SSE,165,0.0,8.0,76,0.00,,,0.00,Wunderground v.1.15,2013-08-08 11:30:00,
2013-08-08 06:40:00,77.1,69.3,29.75,SSE,165,0.0,8.0,77,0.00,,,0.00,Wunderground v.1.15,2013-08-08 11:40:00,
2013-08-08 06:50:00,77.0,69.6,29.75,SSE,165,0.0,8.0,78,0.00,,,0.00,Wunderground v.1.15,2013-08-08 11:50:00,
2013-08-08 07:00:00,76.8,69.4,29.75,SSE,165,0.0,8.0,78,0.00,,,0.00,Wunderground v.1.15,2013-08-08 12:00:00,
2013-08-08 07:10:00,76.8,69.4,29.75,SSE,165,0.0,8.0,78,0.00,,,0.00,Wunderground v.1.15,2013-08-08 12:10:00,
2013-08-08 07:20:00,76.9,69.5,29.76,SSE,165,0.0,8.0,78,0.00,,,0.00,Wunderground v.1.15,2013-08-08 12:20:00,
2013-08-08 07:30:00,77.0,69.6,29.76,SSE,165,0.0,8.0,78,0.00,,,0.00,Wunderground v.1.15,2013-08-08 12:30:00,
2013-08-08 07:40:00,77.4,69.6,29.76,SSE,165,0.0,8.0,77,0.00,,,0.00,Wunderground v.1.15,2013-08-08 12:40:00,
2013-08-08 07:50:00,78.3,69.7,29.76,SSE,165,0.0,8.0,75,0.00,,,0.00,Wunderground v.1.15,2013-08-08 12:50:00,
2013-08-08 08:00:00,79.3,69.9,29.77,SSE,163,2.0,2.0,73,0.00,,,0.00,Wunderground v.1.15,2013-08-08 13:00:00,
2013-08-08 08:10:00,79.8,70.0,29.77,SSE,164,1.0,1.0,72,0.00,,,0.00,Wunderground v.1.15,2013-08-08 13:10:00,
2013-08-08 08:20:00,79.5,69.7,29.77,SSE,165,3.0,8.0,72,0.00,,,0.00,Wunderground v.1.15,2013-08-08 13:20:00,
2013-08-08 08:30:00,79.7,69.9,29.77,SSE,167,5.0,8.0,72,0.00,,,0.00,Wunderground v.1.15,2013-08-08 13:30:00,
2013-08-08 08:40:00,80.3,69.6,29.77,South,169,4.0,8.0,70,0.00,,,0.00,Wunderground v.1.15,2013-08-08 13:40:00,
2013-08-08 08:50:00,81.0,69.9,29.77,South,173,4.0,8.0,69,0.00,,,0.00,Wunderground v.1.15,2013-08-08 13:50:00,
2013-08-08 09:00:00,81.4,70.2,29.77,South,175,2.0,8.0,69,0.00,,,0.00,Wunderground v.1.15,2013-08-08 14:00:00,
2013-08-08 09:10:00,82.7,69.3,29.78,South,185,5.0,5.0,64,0.00,,,0.00,Wunderground v.1.15,2013-08-08 14:10:00,
2013-08-08 09:20:00,83.1,69.2,29.78,South,184,4.0,4.0,63,0.00,,,0.00,Wunderground v.1.15,2013-08-08 14:20:00,
2013-08-08 09:30:00,84.2,68.3,29.78,SSW,205,5.0,8.0,59,0.00,,,0.00,Wunderground v.1.15,2013-08-08 14:30:00,
2013-08-08 09:40:00,84.7,68.8,29.78,South,175,7.0,10.0,59,0.00,,,0.00,Wunderground v.1.15,2013-08-08 14:40:00,
2013-08-08 09:50:00,85.1,68.2,29.78,South,184,8.0,8.0,57,0.00,,,0.00,Wunderground v.1.15,2013-08-08 14:50:00,
2013-08-08 10:00:00,86.1,67.5,29.78,South,170,7.0,8.0,54,0.00,,,0.00,Wunderground v.1.15,2013-08-08 15:00:00,
2013-08-08 10:10:00,86.5,67.3,29.77,SSW,198,6.0,8.0,53,0.00,,,0.00,Wunderground v.1.15,2013-08-08 15:10:00,
2013-08-08 10:20:00,87.7,67.3,29.77,South,182,7.0,10.0,51,0.00,,,0.00,Wunderground v.1.15,2013-08-08 15:20:00,
2013-08-08 10:30:00,88.1,67.1,29.77,SSE,161,6.0,9.0,50,0.00,,,0.00,Wunderground v.1.15,2013-08-08 15:30:00,
2013-08-08 10:40:00,88.6,67.0,29.77,South,186,7.0,8.0,49,0.00,,,0.00,Wunderground v.1.15,2013-08-08 15:40:00,
2013-08-08 10:50:00,89.8,66.3,29.78,South,169,4.0,8.0,46,0.00,,,0.00,Wunderground v.1.15,2013-08-08 15:50:00,
2013-08-08 11:00:00,90.6,65.7,29.77,SSW,192,6.0,6.0,44,0.00,,,0.00,Wunderground v.1.15,2013-08-08 16:00:00,
2013-08-08 11:10:00,91.7,64.0,29.77,South,176,6.0,8.0,40,0.00,,,0.00,Wunderground v.1.15,2013-08-08 16:10:00,
2013-08-08 11:20:00,91.8,66.1,29.77,SSW,203,6.0,6.0,43,0.00,,,0.00,Wunderground v.1.15,2013-08-08 16:20:00,
2013-08-08 11:30:00,92.6,65.5,29.77,South,179,8.0,8.0,41,0.00,,,0.00,Wunderground v.1.15,2013-08-08 16:30:00,
2013-08-08 11:40:00,93.3,64.7,29.77,SSE,158,6.0,8.0,39,0.00,,,0.00,Wunderground v.1.15,2013-08-08 16:40:00,
2013-08-08 11:50:00,93.7,65.0,29.77,SSW,195,4.0,4.0,39,0.00,,,0.00,Wunderground v.1.15,2013-08-08 16:50:00,
2013-08-08 12:00:00,94.9,65.3,29.77,SSE,165,3.0,9.0,38,0.00,,,0.00,Wunderground v.1.15,2013-08-08 17:00:00,
2013-08-08 12:10:00,95.7,65.3,29.76,South,178,6.0,10.0,37,0.00,,,0.00,Wunderground v.1.15,2013-08-08 17:10:00,
2013-08-08 12:20:00,95.8,65.4,29.76,SSW,192,6.0,8.0,37,0.00,,,0.00,Wunderground v.1.15,2013-08-08 17:20:00,
2013-08-08 12:30:00,97.4,65.2,29.76,SSW,211,3.0,8.0,35,0.00,,,0.00,Wunderground v.1.15,2013-08-08 17:30:00,
2013-08-08 12:40:00,97.3,65.1,29.76,SSW,210,5.0,8.0,35,0.00,,,0.00,Wunderground v.1.15,2013-08-08 17:40:00,
2013-08-08 12:50:00,98.0,65.7,29.75,South,181,4.0,8.0,35,0.00,,,0.00,Wunderground v.1.15,2013-08-08 17:50:00,
2013-08-08 13:00:00,98.3,65.9,29.75,South,175,4.0,8.0,35,0.00,,,0.00,Wunderground v.1.15,2013-08-08 18:00:00,
2013-08-08 13:10:00,98.6,65.4,29.75,SE,145,7.0,10.0,34,0.00,,,0.00,Wunderground v.1.15,2013-08-08 18:10:00,
2013-08-08 13:20:00,98.4,64.3,29.75,SSW,192,7.0,7.0,33,0.00,,,0.00,Wunderground v.1.15,2013-08-08 18:20:00,
2013-08-08 13:30:00,98.7,65.5,29.75,South,173,5.0,8.0,34,0.00,,,0.00,Wunderground v.1.15,2013-08-08 18:30:00,
2013-08-08 13:40:00,99.0,64.9,29.74,South,172,6.0,8.0,33,0.00,,,0.00,Wunderground v.1.15,2013-08-08 18:40:00,
2013-08-08 13:50:00,99.9,65.6,29.75,SSE,152,4.0,8.0,33,0.00,,,0.00,Wunderground v.1.15,2013-08-08 18:50:00,
2013-08-08 14:00:00,100.1,63.1,29.74,SE,145,8.0,11.0,30,0.00,,,0.00,Wunderground v.1.15,2013-08-08 19:00:00,
2013-08-08 14:10:00,100.2,64.1,29.74,SSE,153,10.0,10.0,31,0.00,,,0.00,Wunderground v.1.15,2013-08-08 19:10:00,
2013-08-08 14:20:00,100.9,63.8,29.74,SW,216,4.0,8.0,30,0.00,,,0.00,Wunderground v.1.15,2013-08-08 19:20:00,
2013-08-08 14:30:00,101.2,64.0,29.74,SE,134,4.0,12.0,30,0.00,,,0.00,Wunderground v.1.15,2013-08-08 19:30:00,
2013-08-08 14:40:00,101.6,64.4,29.73,South,184,8.0,8.0,30,0.00,,,0.00,Wunderground v.1.15,2013-08-08 19:40:00,
2013-08-08 14:50:00,101.4,63.2,29.73,SSW,192,6.0,6.0,29,0.00,,,0.00,Wunderground v.1.15,2013-08-08 19:50:00,
2013-08-08 15:00:00,100.5,63.4,29.73,SE,133,6.0,9.0,30,0.00,,,0.00,Wunderground v.1.15,2013-08-08 20:00:00,
2013-08-08 15:10:00,100.7,63.6,29.72,SE,140,6.0,6.0,30,0.00,,,0.00,Wunderground v.1.15,2013-08-08 20:10:00,
2013-08-08 15:20:00,101.1,62.0,29.72,SE,125,9.0,9.0,28,0.00,,,0.00,Wunderground v.1.15,2013-08-08 20:20:00,
2013-08-08 15:30:00,101.6,62.4,29.72,South,182,9.0,9.0,28,0.00,,,0.00,Wunderground v.1.15,2013-08-08 20:30:00,
2013-08-08 15:40:00,101.6,61.4,29.71,ESE,118,6.0,8.0,27,0.00,,,0.00,Wunderground v.1.15,2013-08-08 20:40:00,
2013-08-08 15:50:00,101.9,61.6,29.71,SSW,202,8.0,8.0,27,0.00,,,0.00,Wunderground v.1.15,2013-08-08 20:50:00,
2013-08-08 16:00:00,102.1,61.8,29.70,SE,130,7.0,8.0,27,0.00,,,0.00,Wunderground v.1.15,2013-08-08 21:00:00,
2013-08-08 16:10:00,102.0,61.7,29.70,SSE,167,10.0,12.0,27,0.00,,,0.00,Wunderground v.1.15,2013-08-08 21:10:00,
2013-08-08 16:30:00,101.9,60.6,29.69,ESE,113,8.0,11.0,26,0.00,,,0.00,Wunderground v.1.15,2013-08-08 21:30:00,
2013-08-08 16:40:00,102.0,61.7,29.69,SSE,153,7.0,13.0,27,0.00,,,0.00,Wunderground v.1.15,2013-08-08 21:40:00,
2013-08-08 16:50:00,102.0,60.7,29.68,South,172,8.0,15.0,26,0.00,,,0.00,Wunderground v.1.15,2013-08-08 21:50:00,
2013-08-08 17:00:00,102.1,58.5,29.68,SSE,159,9.0,9.0,24,0.00,,,0.00,Wunderground v.1.15,2013-08-08 22:00:00,
2013-08-08 17:10:00,102.0,58.4,29.68,South,171,10.0,10.0,24,0.00,,,0.00,Wunderground v.1.15,2013-08-08 22:10:00,
2013-08-08 17:20:00,101.8,58.2,29.67,SE,143,9.0,13.0,24,0.00,,,0.00,Wunderground v.1.15,2013-08-08 22:20:00,
2013-08-08 17:30:00,101.9,57.1,29.67,SSE,168,11.0,11.0,23,0.00,,,0.00,Wunderground v.1.15,2013-08-08 22:30:00,
2013-08-08 17:40:00,101.4,57.9,29.67,SE,140,11.0,14.0,24,0.00,,,0.00,Wunderground v.1.15,2013-08-08 22:40:00,
2013-08-08 18:00:00,101.5,56.8,29.66,SSE,153,11.0,11.0,23,0.00,,,0.00,Wunderground v.1.15,2013-08-08 23:00:00,
2013-08-08 18:10:00,101.4,57.9,29.65,SSE,156,12.0,14.0,24,0.00,,,0.00,Wunderground v.1.15,2013-08-08 23:10:00,
2013-08-08 18:20:00,100.9,58.6,29.66,SSE,159,12.0,14.0,25,0.00,,,0.00,Wunderground v.1.15,2013-08-08 23:20:00,
2013-08-08 18:40:00,100.7,57.3,29.66,SSE,161,11.0,11.0,24,0.00,,,0.00,Wunderground v.1.15,2013-08-08 23:40:00,
2013-08-08 19:00:00,99.8,57.7,29.66,SSE,150,11.0,12.0,25,0.00,,,0.00,Wunderground v.1.15,2013-08-09 00:00:00,
2013-08-08 19:10:00,99.4,57.4,29.66,SE,140,11.0,11.0,25,0.00,,,0.00,Wunderground v.1.15,2013-08-09 00:10:00,
2013-08-08 19:20:00,98.9,56.9,29.67,SE,138,12.0,12.0,25,0.00,,,0.00,Wunderground v.1.15,2013-08-09 00:20:00,
2013-08-08 19:30:00,98.6,56.7,29.67,SSE,151,10.0,12.0,25,0.00,,,0.00,Wunderground v.1.15,2013-08-09 00:30:00,
2013-08-08 19:40:00,98.2,57.4,29.68,SE,140,10.0,11.0,26,0.00,,,0.00,Wunderground v.1.15,2013-08-09 00:40:00,
2013-08-08 19:50:00,97.7,57.0,29.68,SE,144,10.0,10.0,26,0.00,,,0.00,Wunderground v.1.15,2013-08-09 00:50:00,
2013-08-08 20:00:00,97.1,57.6,29.69,SE,132,9.0,9.0,27,0.00,,,0.00,Wunderground v.1.15,2013-08-09 01:00:00,
2013-08-08 20:10:00,96.5,57.1,29.69,SE,145,10.0,14.0,27,0.00,,,0.00,Wunderground v.1.15,2013-08-09 01:10:00,
2013-08-08 20:20:00,96.1,56.7,29.69,SE,139,11.0,12.0,27,0.00,,,0.00,Wunderground v.1.15,2013-08-09 01:20:00,
2013-08-08 20:30:00,95.3,57.0,29.69,SE,137,7.0,8.0,28,0.00,,,0.00,Wunderground v.1.15,2013-08-09 01:30:00,
2013-08-08 20:40:00,94.7,57.5,29.70,SE,133,7.0,7.0,29,0.00,,,0.00,Wunderground v.1.15,2013-08-09 01:40:00,
2013-08-08 20:50:00,94.2,57.1,29.71,SE,137,6.0,9.0,29,0.00,,,0.00,Wunderground v.1.15,2013-08-09 01:50:00,
2013-08-08 21:00:00,93.7,57.6,29.71,SE,126,6.0,6.0,30,0.00,,,0.00,Wunderground v.1.15,2013-08-09 02:00:00,
2013-08-08 21:10:00,93.5,57.4,29.72,SE,126,6.0,8.0,30,0.00,,,0.00,Wunderground v.1.15,2013-08-09 02:10:00,
2013-08-08 21:20:00,93.2,58.1,29.71,SE,129,6.0,6.0,31,0.00,,,0.00,Wunderground v.1.15,2013-08-09 02:20:00,
2013-08-08 21:30:00,92.9,57.8,29.72,SE,130,6.0,8.0,31,0.00,,,0.00,Wunderground v.1.15,2013-08-09 02:30:00,
2013-08-08 22:00:00,92.3,58.2,29.73,SE,134,5.0,8.0,32,0.00,,,0.00,Wunderground v.1.15,2013-08-09 03:00:00,
2013-08-08 22:10:00,91.9,58.7,29.74,SE,135,2.0,2.0,33,0.00,,,0.00,Wunderground v.1.15,2013-08-09 03:10:00,
2013-08-08 22:20:00,91.6,59.3,29.76,WNW,292,1.0,9.0,34,0.00,,,0.00,Wunderground v.1.15,2013-08-09 03:20:00,
2013-08-08 22:30:00,92.0,59.6,29.76,NNW,346,4.0,4.0,34,0.00,,,0.00,Wunderground v.1.15,2013-08-09 03:30:00,
2013-08-08 22:40:00,92.3,59.9,29.76,North,355,3.0,3.0,34,0.00,,,0.00,Wunderground v.1.15,2013-08-09 03:40:00,
2013-08-08 23:00:00,90.7,62.3,29.77,NNW,336,4.0,4.0,39,0.00,,,0.00,Wunderground v.1.15,2013-08-09 04:00:00,
2013-08-08 23:10:00,88.4,63.7,29.77,NNW,335,2.0,2.0,44,0.00,,,0.00,Wunderground v.1.15,2013-08-09 04:10:00,
2013-08-08 23:20:00,87.3,64.0,29.77,North,355,2.0,2.0,46,0.00,,,0.00,Wunderground v.1.15,2013-08-09 04:20:00,
2013-08-08 23:30:00,86.6,64.6,29.76,NNE,15,2.0,8.0,48,0.00,,,0.00,Wunderground v.1.15,2013-08-09 04:30:00,
2013-08-08 23:40:00,85.9,64.5,29.76,NNE,20,3.0,8.0,49,0.00,,,0.00,Wunderground v.1.15,2013-08-09 04:40:00,
2013-08-08 23:50:00,85.1,64.9,29.75,NE,38,4.0,8.0,51,0.00,,,0.00,Wunderground v.1.15,2013-08-09 04:50:00,